STARLINK-1269 (45197 NORAD) Tracking and Keplerian Element Data

This shows tracking and keplerian element data for the satellite.

Feedback or suggestion? Click here.




ElementValue
Catalog45197
NameSTARLINK-1269
Epoch Orbit650
Epoch Day88.25001157
Epoch Year2020
RAAN79.2022
Inclination53.0012
Eccentricity0.000147
Argument of Perigee72.2232
Mean Anonmoly197.3194
Mean Motion15.12985083
Decay Rate-0.00097488
L11 45197U 20012V 20088.25001157 -.00097488 00000-0 -55180-2 0 9999
L22 45197 53.0012 79.2022 0001470 72.2232 197.3194 15.12985083 6508

Live tracking and technical data element details for STARLINK-1269 (NORAD 45197). STARLINK-1269 can be tracked NOW for your location showing map with azimuth and elevation plus other details from your city location.

Track the satellite on the map from your city or location and see movement details for azimuth, elevation, latitude, longitude, range, height, and movement on the map or in text.







IsCatalogInMostPopularTable: catalog: 45197, numindb: 5
Update: records affected: 1



GetName: 45197 STARLINK-1269

Hit Count: updated at: Tue, 31 Mar 2020 12:46:59 GMT